Back to catalog

GALEX

AliveScienceLEO
NORAD 27783·PAYLOAD·🇺🇸 United States

Launched Apr 28, 2003 from Cape Canaveral Space Force Station

Loading…

Next Passes (next 24 hours)

TLE

FreshSource: Space-Track

Epoch: Sep 13, 2026, 19:35 UTC

1 27783U 03017A   26256.81608398  .00000522  00000-0  73444-4 0  9997
2 27783  28.9978 310.9635 0003192 262.1240  97.8986 14.66136073250237

Track GALEX in real time with AllMySat

Download on the App Store